[[{"header":{"parameterUnit":"m.s-1","parameterCategory":1,"la1":30.2991,"la2":30.254,"lo1":-89.0895,"lo2":-89.0444,"dy":0.0017,"dx":0.0017,"nx":28,"ny":28,"refTime":"2025-09-14T03:00:00:Z","depth":0,"parameterNumber":2,"parameterNumberName":"U-component_of_WINDS"},"data":[0,0,0,0,0,0,0,0,0,0,0,0,0,0,0,0,0,0,0,0,0,0,0,0,0,0,0,0,0,0,0,0,0,0,0,0,0,0,0,0,0,0,0,0,0,0,0,0,0,0,0,0,0,0,0,0,0,0,-0.2229,-0.223,0,-0.2358,-0.2359,-0.2361,-0.2446,-0.2446,-0.2447,-0.2447,-0.2581,-0.2584,-0.2587,0,0,0,0,0,0,0,0,0,0,0,0,0,-0.2058,-0.2061,-0.2229,-0.223,-0.2232,-0.2358,-0.2359,-0.2361,-0.2446,-0.2446,-0.2447,-0.2448,-0.258,-0.2583,-0.2587,0,0,0,0,0,0,0,0,0,0,0,0,0,-0.2154,-0.2061,-0.2228,-0.2289,-0.2296,-0.2357,-0.2359,-0.2362,-0.2446,-0.2446,-0.2447,-0.2448,-0.2579,-0.2583,-0.2587,-0.2599,0,0,-0.2601,-0.2603,0,0,0,0,0,0,0,0,-0.2148,-0.216,-0.2279,-0.2285,-0.2293,-0.2387,-0.2348,-0.2441,-0.2445,-0.2389,-0.2447,-0.2448,-0.2515,-0.2525,-0.2548,-0.2605,-0.2611,-0.2602,-0.2604,-0.2606,-0.2608,0,0,0,0,0,0,0,-0.2142,-0.2155,-0.228,-0.228,-0.2289,-0.2311,-0.2325,-0.2366,-0.2446,-0.2394,-0.24,-0.2414,-0.252,-0.2543,-0.2551,-0.2613,-0.2602,-0.2606,-0.2608,-0.261,-0.2689,-0.2688,0,0,0,0,0,0,-0.2125,-0.2149,-0.2276,-0.2284,-0.2221,-0.2313,-0.233,-0.2356,-0.2446,-0.246,-0.2413,-0.2418,-0.2535,-0.2546,-0.2556,-0.2578,-0.2606,-0.2611,-0.2613,-0.269,-0.2689,-0.2688,0,0,0,0,0,0,-0.2121,-0.2136,-0.2271,-0.2218,-0.2237,-0.2315,-0.2344,-0.2358,-0.2381,-0.2461,-0.2475,-0.2423,-0.2536,-0.255,-0.2588,-0.2584,-0.2613,-0.2617,-0.269,-0.2689,-0.2688,-0.2619,0,0,0,0,0,0,-0.2116,-0.2134,-0.2138,-0.2218,-0.2239,-0.2299,-0.2344,-0.236,-0.2389,-0.2396,-0.2473,-0.2487,-0.2538,-0.2581,-0.2593,-0.259,-0.262,-0.2691,-0.269,-0.2689,-0.2622,-0.2616,-0.2611,0,0,0,0,0,-0.2109,-0.2113,-0.2138,-0.2153,-0.2246,-0.2299,-0.2311,-0.2369,-0.2388,-0.2394,-0.2445,-0.2484,-0.2582,-0.2584,-0.2598,-0.2597,-0.2692,-0.269,-0.2689,-0.2625,-0.2617,-0.2611,0,0,0,0,0,0,-0.2031,-0.2124,-0.2153,-0.2182,-0.2232,-0.2313,-0.2322,-0.2359,-0.2405,-0.2409,-0.248,-0.2497,-0.2528,-0.2566,-0.2567,-0.2614,-0.2642,-0.2643,-0.2588,-0.2582,-0.2576,-0.2567,-0.2624,0,0,0,0,0,-0.2016,-0.205,-0.2131,-0.2149,-0.2172,-0.2242,-0.2267,-0.2308,-0.2362,-0.2384,-0.2438,-0.249,-0.2533,-0.2559,-0.2602,-0.2628,-0.2647,-0.2634,-0.2628,-0.2623,-0.2624,-0.2643,-0.2639,-0.2683,-0.2683,-0.2683,0,0,-0.1988,-0.2043,-0.206,-0.2135,-0.2178,-0.2213,-0.226,-0.2294,-0.2321,-0.2389,-0.2429,-0.247,-0.2533,-0.2566,-0.2583,-0.2598,-0.2616,-0.2621,-0.2617,-0.262,-0.2641,-0.2637,-0.2633,-0.2682,-0.2683,-0.2683,0,0,-0.1954,-0.1998,-0.202,-0.2062,-0.2128,-0.2174,-0.2179,-0.2255,-0.2286,-0.2327,-0.238,-0.2413,-0.2484,-0.2527,-0.2559,-0.2543,-0.2582,-0.2555,-0.2525,-0.2543,-0.2539,-0.2536,-0.2533,-0.253,-0.2555,-0.2555,-0.2555,0,-0.1911,-0.1964,-0.2026,-0.2058,-0.209,-0.2154,-0.2177,-0.2215,-0.2291,-0.2312,-0.2328,-0.2421,-0.2467,-0.2512,-0.2508,-0.2531,-0.254,-0.2547,-0.2534,-0.2532,-0.2531,-0.2528,-0.2526,-0.2551,-0.2552,-0.2552,-0.2553,0,-0.1909,-0.1945,-0.1955,-0.2027,-0.206,-0.2087,-0.2154,-0.218,-0.2218,-0.2263,-0.2306,-0.2364,-0.2421,-0.2434,-0.2471,-0.2485,-0.2493,-0.2521,-0.255,-0.2522,-0.2521,-0.252,-0.2546,-0.2548,-0.2549,-0.255,0,0,-0.1829,-0.1936,-0.1938,-0.1973,-0.205,-0.208,-0.2111,-0.2167,-0.2189,-0.2239,-0.2268,-0.2328,-0.2355,-0.239,-0.2433,-0.2448,-0.2435,-0.2475,-0.2477,-0.2467,-0.2456,-0.2435,-0.2433,-0.246,-0.246,-0.246,-0.2451,0,-0.1808,-0.1866,-0.1923,-0.1962,-0.1998,-0.2059,-0.2087,-0.2138,-0.2181,-0.2219,-0.2267,-0.2309,-0.234,-0.2362,-0.238,-0.2432,-0.2434,-0.2434,-0.2489,-0.249,-0.2473,-0.2432,-0.2411,-0.2399,-0.2451,-0.2451,-0.2451,0,-0.1791,-0.184,-0.1882,-0.1958,-0.1975,-0.1998,-0.2056,-0.209,-0.215,-0.2181,-0.2221,-0.2266,-0.2303,-0.2327,-0.238,-0.2379,-0.2405,-0.2434,-0.2435,-0.2444,-0.247,-0.2441,-0.2397,-0.2395,-0.245,-0.245,-0.245,0,-0.1731,-0.1807,-0.1842,-0.187,-0.1958,-0.1974,-0.2012,-0.2072,-0.2103,-0.2153,-0.2174,-0.2228,-0.2257,-0.2298,-0.2358,-0.2369,-0.2405,-0.2434,-0.2433,-0.2432,-0.2439,-0.2438,-0.2399,-0.2453,-0.2453,-0.2453,-0.2453,0,-0.1703,-0.1727,-0.1817,-0.1839,-0.1868,-0.1934,-0.1961,-0.2004,-0.2058,-0.2091,-0.2147,-0.2176,-0.2252,-0.2291,-0.2337,-0.2375,-0.2388,-0.2415,-0.2427,-0.2411,-0.2408,-0.243,-0.2433,-0.2452,-0.2452,-0.2452,-0.2452,0,-0.1641,-0.1702,-0.1746,-0.1827,-0.1848,-0.1866,-0.1935,-0.196,-0.2007,-0.2047,-0.2061,-0.2135,-0.2184,-0.2247,-0.2315,-0.2347,-0.238,-0.2398,-0.236,-0.2367,-0.2364,-0.2364,-0.234,-0.2341,-0.2391,-0.239,-0.239,0,-0.162,-0.164,-0.1723,-0.1749,-0.1786,-0.1826,-0.1858,-0.1924,-0.1956,-0.2026,-0.2042,-0.2095,-0.2142,-0.2217,-0.2277,-0.2331,-0.2352,-0.2339,-0.236,-0.2343,-0.2354,-0.2353,-0.2356,-0.2334,-0.2334,-0.2333,-0.2332,0,-0.1577,-0.1606,-0.165,-0.1705,-0.1742,-0.1789,-0.1838,-0.1856,-0.1932,-0.1965,-0.2016,-0.2051,-0.2122,-0.2175,-0.2236,-0.2276,-0.2318,-0.2325,-0.2328,-0.2312,-0.229,-0.2304,-0.2347,-0.2326,-0.2326,-0.2327,-0.2327,-0.2327,-0.1536,-0.1558,-0.1621,-0.1668,-0.1712,-0.1757,-0.1785,-0.1836,-0.1879,-0.1942,-0.1978,-0.2028,-0.2089,-0.2176,-0.2214,-0.2255,-0.2271,-0.2274,-0.2276,-0.2276,-0.2272,-0.2282,-0.2266,-0.2267,-0.2267,-0.2267,-0.2267,0,-0.1498,-0.1541,-0.1585,-0.1652,-0.169,-0.1725,-0.1782,-0.1811,-0.1855,-0.1908,-0.1953,-0.2012,-0.2064,-0.2128,-0.2185,-0.2205,-0.2226,-0.2218,-0.2218,-0.2227,-0.2254,-0.2246,-0.2201,-0.2201,-0.2201,-0.2201,-0.2201,-0.2201,-0.1482,-0.1521,-0.1559,-0.1621,-0.1664,-0.1714,-0.1744,-0.1786,-0.1829,-0.1893,-0.1936,-0.1978,-0.2037,-0.2098,-0.2148,-0.2166,-0.2185,-0.2171,-0.2195,-0.2219,-0.2225,-0.2231,-0.2224,-0.2175,-0.2175,-0.2166,-0.2166,-0.2165]},{"header":{"parameterUnit":"m.s-1","parameterCategory":1,"la1":30.2991,"la2":30.254,"lo1":-89.0895,"lo2":-89.0444,"dy":0.0017,"dx":0.0017,"nx":28,"ny":28,"refTime":"2025-09-14T03:00:00:Z","depth":0,"parameterNumber":3,"parameterNumberName":"V-component_of_WINDS"},"data":[0,0,0,0,0,0,0,0,0,0,0,0,0,0,0,0,0,0,0,0,0,0,0,0,0,0,0,0,0,0,0,0,0,0,0,0,0,0,0,0,0,0,0,0,0,0,0,0,0,0,0,0,0,0,0,0,0,0,0.9413,0.9412,0,0.933,0.9329,0.9328,0.9263,0.9262,0.9262,0.9261,0.9173,0.9171,0.9169,0,0,0,0,0,0,0,0,0,0,0,0,0,0.9513,0.9511,0.9413,0.9412,0.9411,0.933,0.9329,0.9327,0.9263,0.9262,0.9262,0.9261,0.9173,0.9171,0.9169,0,0,0,0,0,0,0,0,0,0,0,0,0,0.9453,0.9511,0.9413,0.9369,0.9364,0.933,0.9329,0.9327,0.9263,0.9262,0.9261,0.9261,0.9174,0.9171,0.9169,0.9171,0,0,0.9161,0.9159,0,0,0,0,0,0,0,0,0.9457,0.945,0.9377,0.9372,0.9367,0.9306,0.9331,0.9275,0.9263,0.9302,0.9261,0.926,0.9218,0.9211,0.9197,0.9166,0.9163,0.916,0.9159,0.9158,0.9157,0,0,0,0,0,0,0,0.9461,0.9453,0.938,0.9376,0.9369,0.9352,0.9343,0.932,0.9266,0.9298,0.9293,0.9284,0.9215,0.92,0.9195,0.9161,0.916,0.9158,0.9156,0.9155,0.9126,0.9127,0,0,0,0,0,0,0.9473,0.9457,0.9382,0.9377,0.9411,0.9351,0.9341,0.9326,0.9266,0.9256,0.9285,0.9282,0.9205,0.9198,0.9192,0.9189,0.9158,0.9155,0.9154,0.9125,0.9126,0.9127,0,0,0,0,0,0,0.9475,0.9467,0.9386,0.9416,0.9404,0.9351,0.9335,0.9325,0.9311,0.9256,0.9246,0.9281,0.9204,0.9195,0.9176,0.9185,0.9154,0.9151,0.9124,0.9126,0.9127,0.9184,0,0,0,0,0,0,0.9478,0.9468,0.9469,0.9416,0.9403,0.9373,0.9335,0.9324,0.9307,0.9301,0.9249,0.924,0.9203,0.9181,0.9174,0.918,0.9149,0.9123,0.9125,0.9126,0.9181,0.9187,0.9192,0,0,0,0,0,0.9482,0.9488,0.9469,0.9461,0.9403,0.9374,0.9366,0.9324,0.9308,0.9307,0.9272,0.9241,0.9185,0.9179,0.9171,0.9177,0.9122,0.9124,0.9126,0.9178,0.9186,0.9192,0,0,0,0,0,0,0.9542,0.948,0.9459,0.9448,0.9417,0.9363,0.9361,0.9334,0.9306,0.9302,0.925,0.9239,0.9225,0.9199,0.9193,0.9175,0.915,0.915,0.9192,0.9199,0.9204,0.921,0.9147,0,0,0,0,0,0.9554,0.9536,0.9483,0.9478,0.9464,0.9416,0.9401,0.9372,0.9337,0.9323,0.9287,0.9253,0.9227,0.9212,0.9185,0.9177,0.9164,0.9177,0.9183,0.9188,0.9188,0.918,0.9185,0.9133,0.9133,0.9133,0,0,0.9578,0.9542,0.9534,0.9489,0.9462,0.9443,0.9405,0.9387,0.9373,0.932,0.93,0.9272,0.9231,0.9217,0.9209,0.9195,0.92,0.919,0.9194,0.9192,0.9183,0.9188,0.9192,0.9135,0.9134,0.9134,0,0,0.9613,0.9585,0.9578,0.9551,0.951,0.9477,0.9476,0.9426,0.9406,0.9385,0.9345,0.9326,0.9284,0.9256,0.9236,0.9261,0.9231,0.9254,0.9282,0.9275,0.9279,0.9283,0.929,0.9294,0.9254,0.9255,0.9255,0,0.9648,0.962,0.9577,0.9562,0.9543,0.9496,0.9487,0.9463,0.9415,0.9402,0.9387,0.9333,0.9302,0.928,0.9286,0.9272,0.9268,0.9259,0.9282,0.9285,0.9288,0.9294,0.9297,0.9258,0.9257,0.9257,0.9257,0,0.9665,0.9646,0.9645,0.96,0.9581,0.957,0.9524,0.9509,0.9482,0.9451,0.943,0.9391,0.9356,0.9349,0.9321,0.9323,0.9315,0.9292,0.9266,0.9296,0.9302,0.9304,0.9262,0.9261,0.926,0.9259,0,0,0.9734,0.9667,0.9667,0.9646,0.9597,0.9581,0.9567,0.9533,0.9521,0.949,0.9475,0.9441,0.9419,0.9397,0.9366,0.936,0.938,0.9337,0.9336,0.9346,0.9378,0.9395,0.9399,0.9361,0.9361,0.9361,0.9381,0,0.976,0.9733,0.9694,0.9679,0.966,0.9615,0.9602,0.957,0.9541,0.952,0.9487,0.9463,0.9437,0.9423,0.9415,0.938,0.9386,0.9378,0.9345,0.9345,0.9356,0.9402,0.9419,0.944,0.9383,0.9383,0.9384,0,0.9787,0.9759,0.9743,0.9695,0.9685,0.9675,0.964,0.9621,0.9584,0.9563,0.9538,0.9505,0.9486,0.9463,0.9436,0.9431,0.9415,0.9396,0.9396,0.939,0.9365,0.9396,0.9446,0.9449,0.9387,0.9386,0.9386,0,0.9838,0.9796,0.9781,0.9764,0.9708,0.9702,0.9678,0.964,0.9622,0.9591,0.9579,0.9547,0.9529,0.9504,0.9462,0.945,0.9439,0.9413,0.942,0.9421,0.9418,0.9419,0.9465,0.9411,0.9411,0.9411,0.9411,0,0.9871,0.9863,0.9803,0.9793,0.9782,0.9737,0.9726,0.9698,0.9664,0.9647,0.9606,0.9591,0.9538,0.9516,0.9483,0.9465,0.9457,0.9438,0.943,0.9442,0.9444,0.943,0.9427,0.9411,0.9411,0.9411,0.9411,0,0.9926,0.9886,0.9866,0.9815,0.9801,0.9795,0.9751,0.9739,0.9708,0.9687,0.9679,0.9629,0.9601,0.9558,0.9517,0.9495,0.9482,0.9468,0.9495,0.9489,0.9498,0.9497,0.9536,0.9538,0.9484,0.9484,0.9485,0,0.9949,0.9941,0.989,0.9876,0.9854,0.9832,0.9814,0.9769,0.9751,0.9708,0.9701,0.967,0.9643,0.96,0.956,0.9528,0.9512,0.9528,0.9507,0.9519,0.9511,0.9512,0.951,0.9532,0.9533,0.9534,0.9535,0,0.9994,0.9974,0.995,0.9919,0.9898,0.9871,0.9842,0.9833,0.9781,0.9763,0.9735,0.9714,0.9672,0.9642,0.9604,0.9578,0.9547,0.9542,0.9541,0.9553,0.9568,0.9559,0.9507,0.9541,0.954,0.954,0.9539,0.9539,1.0032,1.0023,0.9985,0.9959,0.9933,0.9907,0.9893,0.986,0.9836,0.9799,0.9774,0.9747,0.9708,0.9655,0.9631,0.9608,0.9594,0.9594,0.9594,0.9594,0.9598,0.9573,0.9601,0.9601,0.9601,0.96,0.96,0,1.0073,1.0047,1.0024,0.9985,0.9964,0.9939,0.9905,0.9889,0.9866,0.9833,0.9808,0.9775,0.9745,0.9702,0.9669,0.9659,0.9643,0.9651,0.9651,0.9645,0.9613,0.9616,0.9664,0.9664,0.9664,0.9664,0.9664,0.9664,1.0093,1.0075,1.0052,1.0021,0.9994,0.9968,0.995,0.9926,0.9899,0.9864,0.984,0.9813,0.9775,0.9739,0.971,0.9698,0.9687,0.9699,0.9683,0.9653,0.9647,0.9642,0.9644,0.9698,0.9698,0.9717,0.9717,0.9717]}]]